Weather History for Deer Park, WA

Change the Weather History Date:

Saturday, September 15, 2012

  Actual Average Record
Temperature  
Mean Temperature 59 °F 57 °F  
Max Temperature 79 °F 74 °F 89 °F (2001)
Min Temperature 39 °F 39 °F 32 °F (2008)
Degree Days  
Heating Degree Days 6 9  
Month to date heating degree days 120 100  
Since 1 July heating degree days 213 244  
Cooling Degree Days 0 0  
Month to date cooling degree days 6 10  
Year to date cooling degree days 232 185  
Growing Degree Days 9 (Base 50)    
Moisture  
Dew Point 36 °F    
Average Humidity 50    
Maximum Humidity 79    
Minimum Humidity 21    
Precipitation  
Precipitation 0.00 in 0.03 in 0.27 in (2004)
Month to date precipitation 0.01 0.47  
Year to date precipitation 17.74 13.91  
Sea Level Pressure  
Sea Level Pressure 30.06 in    
Wind  
Wind Speed 2 mph (NW)    
Max Wind Speed 8 mph    
Max Gust Speed 12 mph    
Visibility 10 miles    
Events      
T = Trace of Precipitation, MM = Missing Value Source: NWS Daily Summary

Daily Weather History Graph

Daily Weather History Graph

Search for Another Location

Airport:

Trip Planner

Search our weather history database for the weather conditions in past years. The results will help you decide how hot, cold, wet, or windy it might be!

Date:

Astronomy

Sep. 15, 2012 Rise Set
Actual Time 6:27 AM PDT 7:00 PM PDT
Civil Twilight 5:56 AM PDT 7:31 PM PDT
Nautical Twilight 5:19 AM PDT 8:08 PM PDT
Astronomical Twilight 4:40 AM PDT 8:47 PM PDT
Moon 6:06 AM PDT (9/15) 6:28 PM PDT (9/15)
Length of Visible Light 13h 35m
Length of Day
12h 33m
Waning Crescent, 0% of the Moon is Illuminated
Sep 15
Waning Crescent
Sep 15
New
Sep 22
First Quarter
Sep 29
Full
Oct 8
Last Quarter

Hourly Weather History & Observations

Time (PDT) Temp. Windchill Dew Point Humidity Pressure Visibility Wind Dir Wind Speed Gust Speed Precip Events Conditions
12:53 AM 44.1 °F 42.5 °F 34.0 °F 68% 30.01 in 10.0 mi North 3.5 mph - N/A   Clear
1:53 AM 46.0 °F - 36.0 °F 68% 30.00 in 10.0 mi Calm Calm - N/A   Clear
2:53 AM 45.0 °F - 35.1 °F 68% 30.03 in 10.0 mi Calm Calm - N/A   Clear
3:53 AM 41.0 °F - 34.0 °F 76% 30.04 in 10.0 mi Calm Calm - N/A   Clear
4:53 AM 43.0 °F - 35.1 °F 74% 30.06 in 10.0 mi Calm Calm - N/A   Partly Cloudy
5:53 AM 42.1 °F - 35.1 °F 76% 30.06 in 10.0 mi Calm Calm - N/A   Clear
6:53 AM 39.9 °F - 33.1 °F 77% 30.08 in 10.0 mi Calm Calm - N/A   Clear
7:53 AM 50.0 °F - 37.9 °F 63% 30.08 in 10.0 mi NW 3.5 mph - N/A   Clear
8:53 AM 62.1 °F - 39.0 °F 43% 30.08 in 10.0 mi Calm Calm - N/A   Clear
9:53 AM 66.9 °F - 35.1 °F 31% 30.08 in 10.0 mi WNW 3.5 mph - N/A   Clear
10:53 AM 69.1 °F - 39.9 °F 35% 30.08 in 10.0 mi Variable 3.5 mph - N/A   Clear
11:53 AM 72.0 °F - 37.0 °F 28% 30.09 in 10.0 mi SSE 3.5 mph - N/A   Clear
12:53 PM 73.9 °F - 36.0 °F 25% 30.09 in 10.0 mi South 3.5 mph - N/A   Clear
1:53 PM 78.1 °F - 36.0 °F 22% 30.07 in 10.0 mi Calm Calm - N/A   Clear
2:53 PM 77.0 °F - 35.1 °F 22% 30.06 in 10.0 mi West 6.9 mph - N/A   Clear
3:53 PM 79.0 °F - 35.1 °F 20% 30.05 in 10.0 mi Calm Calm - N/A   Clear
4:53 PM 79.0 °F - 35.1 °F 20% 30.04 in 10.0 mi NW 4.6 mph - N/A   Clear
5:53 PM 77.0 °F - 36.0 °F 23% 30.04 in 10.0 mi North 3.5 mph - N/A   Clear
6:53 PM 69.1 °F - 37.9 °F 32% 30.06 in 10.0 mi Calm Calm - N/A   Clear
7:53 PM 59.0 °F - 39.0 °F 48% 30.06 in 10.0 mi NW 3.5 mph - N/A   Clear
8:53 PM 51.1 °F - 37.0 °F 59% 30.07 in 10.0 mi WNW 3.5 mph - N/A   Clear
9:53 PM 46.9 °F - 37.0 °F 68% 30.07 in 10.0 mi Calm Calm - N/A   Clear
10:53 PM 48.9 °F - 37.9 °F 66% 30.08 in 10.0 mi Calm Calm - N/A   Clear
11:53 PM 45.0 °F - 37.9 °F 76% 30.08 in 10.0 mi Calm Calm - N/A   Clear